• In Portugal
  • List of Countries
  • For 7 days
  • Water Temperature
  • Satellite Maps
  • Weather Map
  • Weather Widgets
  • user-avatar
    Login

    Hourly Weather Dipayal

    Today, 22 September, Saturday

    Time Temperature Precipitation Wind Pressure Humidity
    00:00 +24°C° 2.2 mm 1 mps 704 mmHg 90%
    01:00 +24°C° 2.2 mm 2 mps 704 mmHg 90%
    02:00 +24°C° 2.2 mm 2 mps 703 mmHg 89%
    03:00 +24°C° 0.4 mm 2 mps 703 mmHg 87%
    04:00 +24°C° 0.4 mm 1 mps 703 mmHg 86%
    05:00 +23°C° 0 mm 1 mps 703 mmHg 85%
    06:00 +25°C° 0.1 mm 1 mps 704 mmHg 80%
    07:00 +26°C° 0.1 mm 1 mps 704 mmHg 74%
    08:00 +26°C° 0.1 mm 0 mps 704 mmHg 68%
    09:00 +30°C° 0.1 mm 1 mps 704 mmHg 62%
    10:00 +31°C° 0.1 mm 1 mps 704 mmHg 55%
    11:00 +31°C° 0 mm 2 mps 705 mmHg 51%
    12:00 +32°C° 0.1 mm 2 mps 705 mmHg 50%
    13:00 +32°C° 0.1 mm 2 mps 704 mmHg 50%
    14:00 +34°C° 0.1 mm 2 mps 704 mmHg 49%
    15:00 +31°C° 0.1 mm 2 mps 704 mmHg 57%
    16:00 +30°C° 0.1 mm 1 mps 704 mmHg 64%
    17:00 +29°C° 0.1 mm 1 mps 704 mmHg 72%
    18:00 +27°C° 0.3 mm 1 mps 704 mmHg 76%
    19:00 +26°C° 0.3 mm 1 mps 704 mmHg 80%
    20:00 +25°C° 0.3 mm 1 mps 705 mmHg 84%
    21:00 +25°C° 0.2 mm 1 mps 705 mmHg 83%
    22:00 +25°C° 0.2 mm 1 mps 705 mmHg 81%
    23:00 +25°C° 0.2 mm 1 mps 705 mmHg 80%

    Tomorrow, 23 September, Sunday

    Time Temperature Precipitation Wind Pressure Humidity
    00:00 +25°C° 0.1 mm 1 mps 705 mmHg 79%
    01:00 +25°C° 0.1 mm 1 mps 704 mmHg 78%
    02:00 +25°C° 0.1 mm 1 mps 704 mmHg 76%
    03:00 +25°C° 0.2 mm 1 mps 704 mmHg 76%
    04:00 +25°C° 0.2 mm 1 mps 704 mmHg 75%
    05:00 +24°C° 0.2 mm 1 mps 704 mmHg 75%
    06:00 +26°C° 0.1 mm 1 mps 705 mmHg 72%
    07:00 +27°C° 0.1 mm 1 mps 705 mmHg 69%
    08:00 +28°C° 0.1 mm 1 mps 706 mmHg 66%
    09:00 +29°C° 0.1 mm 1 mps 706 mmHg 65%
    10:00 +29°C° 0.1 mm 1 mps 705 mmHg 64%
    11:00 +30°C° 0.1 mm 1 mps 705 mmHg 64%
    12:00 +29°C° 0.2 mm 1 mps 705 mmHg 67%
    13:00 +29°C° 0.2 mm 1 mps 704 mmHg 70%
    14:00 +28°C° 0.2 mm 1 mps 704 mmHg 73%
    15:00 +28°C° 0.2 mm 1 mps 704 mmHg 76%
    16:00 +27°C° 0.2 mm 1 mps 704 mmHg 79%
    17:00 +27°C° 0.2 mm 1 mps 703 mmHg 81%
    18:00 +26°C° 0 mm 1 mps 704 mmHg 80%
    19:00 +26°C° 0 mm 1 mps 704 mmHg 79%
    20:00 +25°C° 0 mm 1 mps 705 mmHg 77%
    21:00 +25°C° 0 mm 1 mps 704 mmHg 76%
    22:00 +25°C° 0 mm 1 mps 704 mmHg 76%
    23:00 +24°C° 0 mm 1 mps 704 mmHg 75%

    Day after tomorrow, 24 September, Monday

    Time Temperature Precipitation Wind Pressure Humidity
    00:00 +24°C° 0 mm 1 mps 704 mmHg 74%
    01:00 +24°C° 0 mm 1 mps 703 mmHg 74%
    02:00 +24°C° 0 mm 2 mps 703 mmHg 73%
    03:00 +23°C° 0 mm 2 mps 703 mmHg 73%
    04:00 +23°C° 0 mm 2 mps 703 mmHg 72%
    05:00 +23°C° 0 mm 2 mps 702 mmHg 72%
    06:00 +25°C° 0 mm 1 mps 703 mmHg 67%
    07:00 +27°C° 0 mm 1 mps 704 mmHg 63%
    08:00 +30°C° 0 mm 1 mps 704 mmHg 58%
    09:00 +31°C° 0 mm 2 mps 704 mmHg 57%
    10:00 +32°C° 0 mm 2 mps 704 mmHg 55%
    11:00 +34°C° 0 mm 2 mps 704 mmHg 53%
    12:00 +32°C° 0.6 mm 2 mps 703 mmHg 58%
    13:00 +31°C° 0.6 mm 2 mps 703 mmHg 62%
    14:00 +31°C° 0.6 mm 2 mps 702 mmHg 67%
    15:00 +30°C° 0.8 mm 2 mps 702 mmHg 74%
    16:00 +28°C° 0.8 mm 1 mps 701 mmHg 80%
    17:00 +27°C° 0.8 mm 1 mps 701 mmHg 87%
    18:00 +27°C° 1.1 mm 1 mps 701 mmHg 89%
    19:00 +26°C° 1.1 mm 1 mps 702 mmHg 90%
    20:00 +25°C° 1.1 mm 1 mps 702 mmHg 92%
    21:00 +25°C° 2 mm 1 mps 702 mmHg 93%
    22:00 +25°C° 2 mm 1 mps 702 mmHg 93%
    23:00 +25°C° 2 mm 1 mps 702 mmHg 93%

    25 September, Tuesday

    Time Temperature Precipitation Wind Pressure Humidity
    00:00 +25°C° 1.5 mm 1 mps 701 mmHg 93%
    01:00 +25°C° 1.5 mm 1 mps 701 mmHg 92%
    02:00 +24°C° 1.5 mm 1 mps 700 mmHg 92%
    03:00 +24°C° 0.3 mm 1 mps 700 mmHg 91%
    04:00 +24°C° 0.3 mm 1 mps 700 mmHg 90%
    05:00 +24°C° 0.3 mm 1 mps 700 mmHg 89%
    06:00 +26°C° 0 mm 1 mps 701 mmHg 83%
    07:00 +27°C° 0 mm 1 mps 701 mmHg 77%
    08:00 +29°C° 0 mm 1 mps 702 mmHg 72%
    09:00 +30°C° 0 mm 1 mps 702 mmHg 66%
    10:00 +32°C° 0 mm 1 mps 702 mmHg 61%
    11:00 +34°C° 0 mm 2 mps 702 mmHg 55%
    12:00 +34°C° 0.2 mm 2 mps 701 mmHg 58%
    13:00 +32°C° 0.2 mm 2 mps 701 mmHg 60%
    14:00 +32°C° 0.2 mm 2 mps 700 mmHg 63%
    15:00 +31°C° 0.4 mm 2 mps 700 mmHg 71%
    16:00 +29°C° 0.4 mm 1 mps 700 mmHg 79%
    17:00 +28°C° 0.4 mm 1 mps 699 mmHg 87%
    18:00 +27°C° 0.1 mm 1 mps 700 mmHg 90%
    19:00 +26°C° 0.1 mm 1 mps 700 mmHg 92%
    20:00 +23°C° 0.1 mm 0 mps 701 mmHg 95%
    21:00 +23°C° 0 mm 0 mps 701 mmHg 94%
    22:00 +25°C° 0 mm 1 mps 700 mmHg 93%
    23:00 +24°C° 0 mm 1 mps 700 mmHg 92%

    26 September, Wednesday

    Time Temperature Precipitation Wind Pressure Humidity
    00:00 +24°C° 0 mm 1 mps 700 mmHg 90%
    01:00 +24°C° 0 mm 1 mps 700 mmHg 89%
    02:00 +24°C° 0 mm 1 mps 699 mmHg 88%
    03:00 +24°C° 0 mm 1 mps 699 mmHg 86%
    04:00 +23°C° 0 mm 1 mps 699 mmHg 85%
    05:00 +23°C° 0 mm 1 mps 700 mmHg 83%
    06:00 +25°C° 0 mm 1 mps 700 mmHg 78%
    07:00 +27°C° 0 mm 1 mps 701 mmHg 73%
    08:00 +29°C° 0 mm 1 mps 702 mmHg 68%
    09:00 +30°C° 0 mm 1 mps 702 mmHg 65%
    10:00 +32°C° 0 mm 1 mps 702 mmHg 61%
    11:00 +34°C° 0 mm 2 mps 702 mmHg 58%
    12:00 +32°C° 0.5 mm 2 mps 701 mmHg 61%
    13:00 +32°C° 0.5 mm 2 mps 701 mmHg 64%
    14:00 +31°C° 0.5 mm 2 mps 700 mmHg 67%
    15:00 +30°C° 0.6 mm 2 mps 700 mmHg 74%
    16:00 +29°C° 0.6 mm 1 mps 700 mmHg 80%
    17:00 +28°C° 0.6 mm 1 mps 700 mmHg 86%
    18:00 +27°C° 0.4 mm 1 mps 701 mmHg 88%
    19:00 +26°C° 0.4 mm 1 mps 701 mmHg 90%
    20:00 +25°C° 0.4 mm 1 mps 701 mmHg 93%
    21:00 +25°C° 0 mm 1 mps 701 mmHg 92%
    22:00 +25°C° 0 mm 1 mps 701 mmHg 91%
    23:00 +24°C° 0 mm 1 mps 701 mmHg 90%

    27 September, Thursday

    Time Temperature Precipitation Wind Pressure Humidity
    00:00 +24°C° 0 mm 1 mps 701 mmHg 89%
    01:00 +24°C° 0 mm 1 mps 701 mmHg 88%
    02:00 +24°C° 0 mm 1 mps 701 mmHg 87%
    03:00 +24°C° 0 mm 1 mps 701 mmHg 86%
    04:00 +24°C° 0 mm 1 mps 701 mmHg 85%
    05:00 +23°C° 0 mm 1 mps 701 mmHg 84%
    06:00 +25°C° 0 mm 1 mps 702 mmHg 78%
    07:00 +27°C° 0 mm 1 mps 702 mmHg 73%
    08:00 +28°C° 0 mm 0 mps 703 mmHg 67%
    09:00 +31°C° 0.1 mm 1 mps 703 mmHg 64%
    10:00 +32°C° 0.1 mm 1 mps 703 mmHg 60%
    11:00 +34°C° 0.1 mm 2 mps 703 mmHg 57%
    12:00 +34°C° 0.3 mm 2 mps 702 mmHg 58%
    13:00 +32°C° 0.3 mm 2 mps 702 mmHg 60%
    14:00 +32°C° 0.3 mm 2 mps 701 mmHg 61%
    15:00 +31°C° 0.4 mm 2 mps 701 mmHg 68%
    16:00 +30°C° 0.4 mm 1 mps 701 mmHg 75%
    17:00 +28°C° 0.4 mm 1 mps 701 mmHg 82%
    18:00 +27°C° 0 mm 1 mps 702 mmHg 85%
    19:00 +26°C° 0 mm 1 mps 702 mmHg 87%
    20:00 +25°C° 0 mm 1 mps 703 mmHg 90%
    21:00 +25°C° 0 mm 1 mps 702 mmHg 89%
    22:00 +25°C° 0 mm 1 mps 702 mmHg 88%
    23:00 +25°C° 0 mm 1 mps 702 mmHg 88%
    Show more